Вернуться в каталог

DELTA 2 R/B

АктивенLEO
NORAD 25774·ROCKET BODY·🇺🇸 United States

Запущен Jun 10, 1999 с Cape Canaveral Space Force Station

Loading…

Ближайшие Пролёты (ближайшие 24 часа)

TLE

СвежийSource: Space-Track

Эпоха: Sep 14, 2026, 01:48 UTC

1 25774U 99031E   26257.07565536 -.00000097  00000-0  40913-4 0  9994
2 25774  51.5275 299.7193 0374879  33.7767 343.8776 13.46786534341242

Отслеживайте DELTA 2 R/B в реальном времени с AllMySat

Download on the App Store